Location: Foots Cray
(51.4000°N, 0.1167°E)
Time: 23:31:22
(UTC+00:00)

Cosmos 1842 - Pass Details

Date: 15 May 2026
Orbit: 395 x 397 km, 82.5° (Epoch: 11 June)

Event Time Altitude Azimuth Distance (km) Brightness Sun altitude
Exits shadow 23:31:14 29° 262° (W) 768 4.0 -19.3°
Maximum altitude 23:31:50 31° 287° (WNW) 721 4.1 -19.3°
Drops below altitude 10° 23:34:42 10° 352° (N) 1,452 6.7 -19.4°
Sets 23:36:51 0° 3° (N) 2,315 8.1 -19.4°
